GW3006 Weather Reports


time (UTC)temp
C
wind
direction
speed
KPH
gust
KPH
rain 1hr
cm
rain 24hr
cm
rain mn
cm
humidity
%
barometer
mb
20260507182703 12 0 0.0 0.0 0.00 0.00 0.00 78 1013.2
20260507181803 12 0 0.0 0.0 0.00 0.00 0.00 77 1013.2
20260507180903 12 0 0.0 0.0 0.00 0.00 0.00 77 1013.2
20260507180004 12 8 1.6 4.8 0.00 0.00 0.00 77 1013.2
20260507175403 12 359 1.6 6.4 0.00 0.00 0.00 77 1013.2
20260507174503 12 1 1.6 4.8 0.00 0.00 0.00 78 1013.6
20260507173624 12 9 1.6 9.7 0.00 0.00 0.00 77 1013.4
20260507172703 12 12 3.2 6.4 0.00 0.00 0.00 77 1013.4
20260507171803 12 14 3.2 6.4 0.00 0.00 0.00 77 1013.5
20260507170903 12 8 1.6 4.8 0.00 0.00 0.00 76 1013.4
20260507170024 12 12 3.2 9.7 0.00 0.00 0.00 77 1013.5
20260507165403 12 11 1.6 9.7 0.00 0.00 0.00 76 1013.4
20260507164503 12 1 1.6 6.4 0.00 0.00 0.00 77 1013.6
20260507163603 12 11 1.6 6.4 0.00 0.00 0.00 77 1013.6
20260507162704 12 15 0.0 4.8 0.00 0.00 0.00 76 1013.5
20260507161824 12 1 0.0 6.4 0.00 0.00 0.00 76 1013.4
20260507160903 12 13 0.0 3.2 0.00 0.00 0.00 76 1013.4
20260507160003 12 356 0.0 6.4 0.00 0.00 0.00 75 1013.5
20260507155403 12 358 1.6 6.4 0.00 0.00 0.00 75 1013.5
20260507154504 12 1 1.6 6.4 0.00 0.00 0.00 74 1013.1
20260507153603 12 6 1.6 6.4 0.00 0.00 0.00 74 1013.5
20260507152724 12 10 3.2 11.3 0.00 0.00 0.00 73 1013.5
20260507151803 13 6 3.2 9.7 0.00 0.00 0.00 74 1013.1
20260507150903 13 10 3.2 6.4 0.00 0.00 0.00 73 1013.4
20260507150003 13 9 1.6 4.8 0.00 0.00 0.00 72 1013.5
20260507145405 13 7 1.6 4.8 0.00 0.00 0.00 72 1013.5
20260507144503 13 6 1.6 9.7 0.00 0.00 0.00 71 1013.1
20260507143603 13 10 3.2 11.3 0.00 0.00 0.00 71 1013.2
20260507142703 13 9 1.6 6.4 0.00 0.00 0.00 71 1013.0
20260507141824 13 14 0.0 4.8 0.00 0.00 0.00 71 1013.2
20260507140903 13 3 0.0 4.8 0.00 0.00 0.00 70 1013.2
20260507140005 13 3 1.6 9.7 0.00 0.00 0.00 71 1013.2
20260507135403 13 1 1.6 9.7 0.00 0.00 0.00 71 1013.5
20260507134524 13 358 1.6 6.4 0.00 0.00 0.00 70 1013.4
20260507133624 13 13 1.6 6.4 0.00 0.00 0.00 68 1013.5
20260507132703 13 17 1.6 6.4 0.00 0.00 0.00 67 1013.5
20260507131803 14 11 0.0 4.8 0.00 0.00 0.00 65 1013.1
20260507130903 14 0 0.0 0.0 0.00 0.00 0.00 65 1013.2
20260507130004 14 344 0.0 3.2 0.00 0.00 0.00 65 1013.2
20260507125403 14 5 1.6 4.8 0.00 0.00 0.00 65 1013.2
20260507124505 14 6 1.6 6.4 0.00 0.00 0.00 64 1013.1
20260507123603 15 0 0.0 0.0 0.00 0.00 0.00 64 1013.4
20260507122705 15 21 0.0 3.2 0.00 0.00 0.00 64 1013.1
20260507121824 15 0 0.0 0.0 0.00 0.00 0.00 61 1013.1
20260507120904 15 351 0.0 3.2 0.00 0.00 0.00 60 1013.1
20260507120003 15 6 0.0 3.2 0.00 0.00 0.00 59 1013.0
20260507115403 15 11 0.0 4.8 0.00 0.00 0.00 59 1012.9
20260507114504 15 355 1.6 9.7 0.00 0.00 0.00 61 1013.0
20260507113624 16 343 0.0 3.2 0.00 0.00 0.00 59 1013.0
20260507112704 15 0 0.0 0.0 0.00 0.00 0.00 60 1012.9
20260507111803 15 23 0.0 3.2 0.00 0.00 0.00 62 1013.2
20260507110903 14 13 0.0 6.4 0.00 0.00 0.00 64 1013.2
20260507110003 15 0 0.0 0.0 0.00 0.00 0.00 63 1013.2
20260507105403 15 0 0.0 0.0 0.00 0.00 0.00 64 1013.1
20260507104504 15 163 0.0 3.2 0.00 0.00 0.00 65 1013.5
20260507103624 15 262 0.0 1.6 0.00 0.00 0.00 64 1013.4
20260507102703 15 324 0.0 1.6 0.00 0.00 0.00 64 1013.5
20260507101803 14 0 0.0 0.0 0.00 0.00 0.00 66 1013.1
20260507100903 14 283 0.0 1.6 0.00 0.00 0.00 67 1013.5
20260507100003 14 0 0.0 0.0 0.00 0.00 0.00 67 1013.4
20260507095403 14 134 0.0 1.6 0.00 0.00 0.00 68 1013.2
20260507094525 14 163 0.0 3.2 0.00 0.00 0.00 67 1013.1
20260507093603 14 164 0.0 4.8 0.00 0.00 0.00 65 1013.4
20260507092703 14 160 1.6 11.3 0.00 0.00 0.00 66 1012.9
20260507091803 15 166 1.6 6.4 0.00 0.00 0.00 65 1013.0
20260507090924 16 197 1.6 4.8 0.00 0.00 0.00 63 1013.0
20260507090005 16 160 0.0 4.8 0.00 0.00 0.00 65 1013.2
20260507085403 15 162 1.6 9.7 0.00 0.00 0.00 68 1013.1
20260507084503 15 175 1.6 6.4 0.00 0.00 0.00 70 1013.0
20260507083603 15 138 1.6 6.4 0.00 0.00 0.00 69 1012.7
20260507082724 15 162 1.6 6.4 0.00 0.00 0.00 72 1012.9
20260507081803 13 163 1.6 4.8 0.00 0.00 0.00 77 1013.1
20260507080903 12 164 1.6 6.4 0.00 0.00 0.00 80 1013.0
20260507080003 12 0 0.0 0.0 0.00 0.00 0.00 83 1012.9
20260507075403 11 0 0.0 0.0 0.00 0.00 0.00 84 1013.0
20260507074524 11 0 0.0 0.0 0.00 0.00 0.00 85 1012.8
20260507073603 11 0 0.0 0.0 0.00 0.00 0.00 86 1012.8
20260507072703 11 153 0.0 3.2 0.00 0.00 0.00 87 1012.9
20260507071803 10 129 0.0 1.6 0.00 0.00 0.00 88 1012.5
20260507070903 10 0 0.0 0.0 0.00 0.00 0.00 88 1012.4
20260507070005 10 0 0.0 0.0 0.00 0.00 0.00 89 1012.4
20260507065403 10 0 0.0 0.0 0.00 0.00 0.00 90 1012.7
20260507064503 10 0 0.0 0.0 0.00 0.00 0.00 90 1012.7
20260507063603 9 0 0.0 0.0 0.00 0.00 0.00 91 1012.6
20260507062703 9 0 0.0 0.0 0.00 0.00 0.00 91 1012.8
20260507061803 9 0 0.0 0.0 0.00 0.00 0.00 92 1012.5
20260507060903 8 0 0.0 0.0 0.00 0.00 0.00 93 1012.4
20260507060024 8 0 0.0 0.0 0.00 0.00 0.00 94 1012.3
20260507055424 8 0 0.0 0.0 0.00 0.00 0.00 95 1012.2
20260507054503 8 0 0.0 0.0 0.00 0.00 0.00 96 1012.0
20260507053603 8 0 0.0 0.0 0.00 0.00 0.00 96 1012.1
20260507052703 8 0 0.0 0.0 0.00 0.00 0.00 97 1012.2
20260507051803 8 0 0.0 0.0 0.00 0.00 0.00 97 1011.9
20260507050903 7 0 0.0 0.0 0.00 0.00 0.00 97 1011.8
20260507050003 7 0 0.0 0.0 0.00 0.00 0.00 97 1011.8
20260507045403 7 0 0.0 0.0 0.00 0.00 0.00 97 1011.8
20260507044503 7 0 0.0 0.0 0.00 0.00 0.00 97 1011.7
20260507043603 7 0 0.0 0.0 0.00 0.00 0.00 97 1011.7
20260507042703 7 0 0.0 0.0 0.00 0.00 0.00 97 1011.6
20260507041804 7 0 0.0 0.0 0.00 0.00 0.00 97 1011.6
20260507040903 7 0 0.0 0.0 0.00 0.00 0.00 97 1011.6
20260507040004 7 359 0.0 1.6 0.00 0.00 0.00 97 1011.2
20260507035403 7 353 0.0 3.2 0.00 0.00 0.00 97 1011.2
20260507034505 7 0 0.0 0.0 0.00 0.00 0.00 97 1010.9
20260507033603 7 0 0.0 0.0 0.00 0.00 0.00 97 1011.1
20260507032725 7 0 0.0 0.0 0.00 0.00 0.00 98 1010.7
20260507031803 7 0 0.0 0.0 0.00 0.00 0.00 97 1010.8
20260507030903 7 0 0.0 0.0 0.00 0.00 0.00 97 1010.7
20260507030005 7 0 0.0 0.0 0.00 0.00 0.00 97 1010.8
20260507025403 7 0 0.0 0.0 0.00 0.00 0.00 97 1010.8
20260507024525 7 0 0.0 0.0 0.00 0.00 0.00 97 1010.8
20260507023624 6 0 0.0 0.0 0.00 0.00 0.00 98 1010.7
20260507022703 7 0 0.0 0.0 0.00 0.00 0.00 97 1010.9
20260507021804 7 0 0.0 0.0 0.00 0.00 0.00 98 1010.9
20260507020903 6 0 0.0 0.0 0.00 0.00 0.00 97 1010.8
20260507020003 6 0 0.0 0.0 0.00 0.00 0.00 97 1010.7
20260507015403 6 0 0.0 0.0 0.00 0.00 0.00 97 1010.5
20260507014503 6 0 0.0 0.0 0.00 0.00 0.00 97 1010.6
20260507013603 6 0 0.0 0.0 0.00 0.00 0.00 97 1010.7
20260507012703 6 0 0.0 0.0 0.00 0.00 0.00 97 1010.5
20260507011805 6 0 0.0 0.0 0.00 0.00 0.00 97 1010.5
20260507010903 6 0 0.0 0.0 0.00 0.00 0.00 97 1010.6
20260507010005 6 0 0.0 0.0 0.00 0.00 0.00 97 1010.7
20260507005403 6 0 0.0 0.0 0.00 0.00 0.00 97 1010.5
20260507004524 6 0 0.0 0.0 0.00 0.00 0.00 96 1010.6
20260507003603 6 0 0.0 0.0 0.00 0.00 0.00 96 1010.4
20260507002703 7 0 0.0 0.0 0.00 0.00 0.00 96 1010.5
20260507001803 6 0 0.0 0.0 0.00 0.00 0.00 96 1010.4
20260507000926 7 0 0.0 0.0 0.00 0.00 0.00 96 1010.1
20260507000003 7 0 0.0 0.0 0.00 0.00 0.00 95 1010.3
20260506235403 7 0 0.0 0.0 0.00 0.00 0.00 95 1010.6
20260506234503 7 0 0.0 0.0 0.00 0.00 0.00 95 1010.4
20260506233603 7 0 0.0 0.0 0.00 0.00 0.00 94 1010.3
20260506232705 7 0 0.0 0.0 0.00 0.00 0.00 94 1010.3
20260506231803 7 0 0.0 0.0 0.00 0.00 0.00 93 1010.2
20260506230903 8 0 0.0 0.0 0.00 0.00 0.00 93 1010.4
20260506230003 8 0 0.0 0.0 0.00 0.00 0.00 92 1010.2
20260506225403 8 0 0.0 0.0 0.00 0.00 0.00 92 1010.2
20260506224504 9 0 0.0 0.0 0.00 0.00 0.00 92 1010.0
20260506223603 9 0 0.0 0.0 0.00 0.00 0.00 92 1009.9
20260506222705 9 0 0.0 0.0 0.00 0.00 0.00 91 1009.8
20260506221803 9 0 0.0 0.0 0.00 0.00 0.00 91 1010.1
20260506220903 10 0 0.0 0.0 0.00 0.00 0.00 91 1010.0
20260506220003 10 0 0.0 0.0 0.00 0.00 0.00 91 1010.2
20260506215424 10 0 0.0 0.0 0.00 0.00 0.00 91 1010.0
20260506214503 10 0 0.0 0.0 0.00 0.00 0.00 90 1010.0
20260506213603 10 0 0.0 0.0 0.00 0.00 0.00 90 1009.8
20260506212703 10 0 0.0 0.0 0.00 0.00 0.00 90 1009.8
20260506211824 10 0 0.0 0.0 0.00 0.00 0.00 89 1009.8
20260506210903 10 0 0.0 0.0 0.00 0.00 0.00 90 1009.7
20260506210003 10 0 0.0 0.0 0.00 0.00 0.00 90 1009.5
20260506205403 10 357 0.0 1.6 0.00 0.00 0.00 90 1009.7
20260506204503 10 346 0.0 3.2 0.00 0.00 0.00 89 1009.4
20260506203624 10 345 1.6 3.2 0.00 0.00 0.00 89 1009.7
20260506202703 10 344 1.6 3.2 0.00 0.00 0.00 89 1009.7
20260506201803 10 2 1.6 4.8 0.00 0.00 0.00 89 1009.4
20260506200903 10 352 1.6 3.2 0.00 0.00 0.00 88 1009.4
20260506200003 10 360 1.6 4.8 0.00 0.00 0.00 88 1009.3
20260506195403 11 357 1.6 3.2 0.00 0.00 0.00 88 1009.2
20260506194524 11 357 1.6 11.3 0.00 0.00 0.00 87 1009.3
20260506193603 11 359 3.2 11.3 0.00 0.00 0.00 86 1009.1
20260506192703 11 9 3.2 9.7 0.00 0.00 0.00 86 1009.1
20260506191803 11 357 3.2 4.8 0.00 0.00 0.00 85 1008.7
20260506190903 11 1 4.8 9.7 0.00 0.00 0.00 85 1008.9
20260506190024 11 3 4.8 12.9 0.00 0.00 0.00 84 1009.0
20260506185406 11 2 4.8 12.9 0.00 0.00 0.00 84 1008.5
20260506184503 11 358 6.4 12.9 0.00 0.00 0.00 83 1008.7
20260506183604 12 9 6.4 16.1 0.00 0.00 0.00 82 1008.6